Timeline UpdatesTrip UpdatesNews PostsPvt Posts♥♥Travel TipsAdmin PostsConv PostsFollowed PostsChat RequestsBlog PostsPNR Posts

Disclaimer
Search
 
 
Wed Nov 26, 2014 09:39:16 ISTHomeTrainsΣChainsAtlasPNRForumGalleryNewsFAQTripsMembersLoginFeedback
No Recent News for this Train
Other Trains in the News **new
Latest...
Will Originate from Malda Court instead of Malda Town wef 16/11/14 #1267700.
Wed Nov 05, 2014 (10:43PM)
⇐ Return Journey: Train# 75720

75401⇒75719/Malda Court - Dinhata DEMU

Time-Table HAS CHANGED.
Nov 20 (4:12PM)
Change Departure Station:
Change Arrival Station:
Post a Train Travel TipPost a Train Travel Tip **new
Post a Comment/Question/Picture/VideoPost a Comment/Question/Picture/Video
Inaugural Run
Fri Aug 02, 2013
Pantry/Catering
✕ NO Pantry Car
✕ NO Catering
RSA - Rake Sharing
Rake/Coach Composition
Loco
News    PNR    Forum    Time-Table    Availability    Fare Chart    Map    Arr/Dep History    Trips    Gallery    ΣChains    X/O    Timeline    
Travel Time: 8h 38m    44 halts    Distance: 300 km    Avg Speed: 34 km/hr
Type: DEMU
Zone: NFR/Northeast Frontier
Departs @ 09:59
Platform# ???
SMTWTFS
Babhabgaon Halt/BAHN 
Arrives @ 18:37
Platform# 1
SMTWTFS
Cooch Behar/COB 

44 halts. 46 intermediate Stations between Babhabgaon Halt and Cooch Behar

Show ALL intermediate Stations  Show Old Time-Table

#TrkCodeStation NameX/OArrivesAvgDepartsAvgHaltPFDay#KmSpeedElevZoneAddress
1%--%MLFCMalda Court (1) new halt!!  -08:10-11-63.92930mNFRold Malda, West Bengal
2%--%OMLFOld Malda Junction (3)X  08:18 08:20-08:19 08:21-1m--1-59.16131mNFRDist - Malda, West Bengal
3%==%ADFAdina (2)X  08:26 08:28+2108:27 08:29+231m--1-51.95633mNFRNational Highway 34, West Bengal
4%==%EKIEklakhi Junction (4)  08:34 08:36+2608:35 08:37+281m--1-45.44133mNFRDistt. - Malda, West Bengal
5%==%MBCMahananda Bridge (2)  08:39 08:41-08:40 08:42-1m--1-42.65728mNFRMahananda, West Bengal
6%==%KMRJKumarganj (2)  08:44 08:46+2908:45 08:47+381m--1-38.87228mNFRNational Highway 34, West Bengal
7%==%SRPUSripur Halt (2)  08:49 08:51-08:50 08:52-1m--1-34.04927mNFRSripur, West Bengal
8%==%SMSamsi (2)O  08:55 08:57+4208:56 08:58+461m--1-30.01532mNFRdist - Malda, West Bengal
9%==%MFZMalahar (2)  09:02 09:22-09:03 09:23-1m--1-24.07531mNFRNational Highway 81, West Bengal
10%==%BKRDBhaluka Road F (2)  09:08 09:28+3009:29+3221 1m--1-17.74230mNFRBhaluka, West Bengal
11%==%MQGMilangarh (2)  09:30 09:34-09:31 09:35-1m--1-14.24229mNFRMilangarh, West Bengal
12%==%HCRHarischandrapur (2)X  09:38 09:42+3109:39 09:43+331m--1-9.34531mNFRHarischandrapur, West Bengal
13%==%KDPRKumedpur Junction (5)  09:47 09:52+4009:48 09:53+441m--1-2.63233mNFRDist. - Malda, West Bengal
14%==%BAHNBabhabgaon Halt (2)»  09:53 09:58-09:54 09:59-1m--10.07231mNFRBabhabgaon, West Bengal
15%==%KWEKhurial (2)  09:58 10:03+5309:59 10:04+571m--14.85733mNFRKhurial, Bihar
16%==%KMPHKamalpur Halt (2)  10:02 10:07-10:03 10:08-1m--17.79632mNFRKamalpur, Bihar
17%==%AZRAzamnagar Road (3)X  10:06 10:11+1:0310:07 10:12+1:041m--112.55234mNFRAzamnagar, Bihar
18%==%BWPBBhawanipur Bihar (2)  10:12 10:17-10:13 10:18-1m1116.84836mNFRBhawanipur, Bihar
19%==%MFAMukuria Junction (2)X  10:18 10:23+1:0710:19 10:24+1:101m--120.92832mNFRMukuria, Bihar
20%--%BOEBarsoi Junction (3)X  10:25 10:33+5210:27 10:35+542m--125.17337mNFRdist- katihar, Bihar
21%==%SJGMSanjay Gram  10:34 10:42-10:35 10:43-1m--133.65134mNFRSanjay Gram, West Bengal
22%==%SUDSudhani (2)  10:46 10:47+1:2010:47 10:48+1:201m--137.07538mNFRState Highway 65, Bihar
23%==%AHLAjharail  10:52 10:53-10:53 10:54-1m--143.23437mNFRNational Highway 34, West Bengal
24%==%TETATelta (2)  10:58 10:59+1:2410:59 11:00+1:251m--146.16140mNFRRupauli, Bihar
25%==%DLKDalkhola (3)X  11:07 11:08+1:2711:09 11:10+1:302m--154.26144mNFRDalkola, West Bengal
26%==%SJKLSurja Kamal (2)  11:16 11:17+1:3211:17 11:18+1:321m--161.23844mNFRNational Highway 31, West Bengal
27%==%KKAKanki (3)XO  11:28 11:30+1:3111:29 11:31+1:341m--168.9947mNFRKanki, West Bengal
28%==%HWRHatwar (2)  11:49 12:09+1:0211:50 12:10+1:021m--174.38446mNFRNational Highway 31, West Bengal
29%==%KNEKishanGanj (3)X  12:23 12:16+4712:25 12:17+472 1m--182.712352mNFRKishanganj, Bihar
30%==%PJPPanjipara (3)O  12:33 12:21+1:1512:34 12:23+1:141 2m--190.96655mNFRNational Highway 31, West Bengal
31%==%GILGaisal (3)O  12:42 12:31+1:1612:43 12:32+1:161m--199.64362mNFRNational Highway 31, West Bengal
32%==%GEORGunjaria  12:49 12:40+1:1912:50 12:41+1:191m--1105.38064mNFRNational Highway 31, West Bengal
33%==%AUBAluabari Road (2)  12:57 12:47+1:2112:59 12:48+1:242 1m--1113.3580mNFRDist - uttar Dinajpur, West Bengal
34%==%DBQDhulabari (2)X  13:04 12:53-13:05 12:55-1 2m--1118.12168mNFRKishanganj, Bihar
35%==%MXJMangurjan (2)  13:11 13:13+1:1313:12 13:14+1:131m--1124.56169mNFRMangurjan, West Bengal
36%==%TMHTin Mile Hat (2)  13:18 13:20+1:1313:19 13:21+1:171m--1130.74474mNFRTin Mile, West Bengal
37%==%DMZDumdangi (2)X  13:27 13:33+1:1513:28 13:34+1:151m--1139.66886mNFRHaftia Rd, West Bengal
38%==%CATChattar Hat (2)X  13:36 13:42+1:1813:37 13:43+1:211m--1148.63691mNFRChattar, West Bengal
39%==%NJBNijbari (2)X  13:44 13:55+1:2313:45 13:56+1:231m--1155.846104mNFRFulbari Ghoshpukur Bypass, West Bengal
40%==%RNIRangapani (2)  13:56 14:05+1:2713:57 14:06+1:281m--1162.623114mNFRSILIGURI Dist - Darjeeling, West Bengal
41%==|NJPNew Jalpaiguri Junction (8)X  14:25+1:0914:35+1:0910m--1170.037114mNFRCity-Siliguri . Dist-Jalpaiguri, West Bengal
42|==|ABFCAmbari Falakata (2)  14:45 14:49+1:2414:46 14:50+1:241m--1178.756105mNFRdist - jalpaiguri 735201, West Bengal
43|==!BLKBelakoba (2)X  14:55 15:00+1:2614:56 15:01+1:281m11188.11699mNFRDist - jalpaiguri, West Bengal
44|-=!RQJRaninagar Jalpaiguri Junction (3)  15:30+1:1515:31+1:391m--1195.83691mNFRDIST - Jalpaiguri, West Bengal
45|--|JPEJalpaiguri Road (2)X  15:37 15:43+1:3315:38 15:44+1:371m11203.05189mNFRDist - Jalpaiguri, West Bengal
46|--|NQHNew Domohani (2)X  15:45 15:53+1:4515:46 15:54+1:501m11210.72384mNFRDist - Jalpaiguri, West Bengal
47|--|NMXNew Maynaguri (2)  15:58 16:04+1:3515:59 16:05+1:421m--1214.54886mNFRDist - Jalpaiguri, West Bengal
48|--|BYXABetgara (2)  16:04 16:11+1:5816:05 16:12+2:041m11219.38789mNFRDIST - Jalpaiguri, West Bengal
49|--|ATMAltagram (2)X  16:13 16:18+2:0816:14 16:19+2:111m--1228.04085mNFRDist - Jalpaiguri, West Bengal
50|--|DQGDhupguri (2)  16:29+1:5916:30+2:001m--1234.86875mNFRDist - Jalpaiguri, West Bengal
51|--|KLGRKolai Gram (2)X  16:36+2:1316:37+2:141m--1241.52375mNFRDist : Jalpaiguri, West Bengal
52|--|SXXSalbari (2)X  16:48 16:54+2:0716:49 16:55+2:091m--1248.27769mNFRDist - jalpaiguri, West Bengal
53|--|FLKFalakata (3)O  16:57 17:02+1:3216:58 17:03+1:321m--1257.22867mNFRDist - Alipurduar, West Bengal
54!==!GUZGumanihat (2)XO  17:06 17:25+1:5417:07 17:26+1:571m11267.61160mNFRDist : Cooch Behar, West Bengal
55!==!GDXGhoksadanga (2)  17:35 17:54+1:3717:36 17:55+1:371m--1272.87558mNFRDist : Cooch Behar, West Bengal
56!==!SJRRSajherpar (2)  17:47 18:01+1:4017:48 18:02+1:401m--1280.35454mNFRDist : Cooch Behar, West Bengal
57!==!PQZPundibari (1)  18:00 18:07+1:4218:01 18:08+1:421m11284.83653mNFRDist - Coochbehar, West Bengal
58!==!NCBNew Cooch Behar Junction (5)  18:25+1:5318:30+1:525m--1295.03947mNFRDist : Cooch Behar-736101, West Bengal
59|--|COBCooch Behar (1)•  18:45 18:37-18:50 18:38-5 1m11299.55146mNFRDist : Cooch Behar, West Bengal
60|--|DWTDewan Hat (1)  19:02 18:50-19:03 18:51-1m11309.74441mNFRdist - Coachbehar, West Bengal
61|--|VTGBhetaguri (1)  19:08 18:56-19:09 18:57-1m11313.43643mNFRDist : Cooch Behar, West Bengal
62|--|DCHDinhatta College Halt (1)  19:20 19:08-19:21 19:09-1m11320.0738mNFRDinhata, West Bengal
63|--|DHHDinhata (2)  19:30----1322.4-39mNFRDist - Coochbehar, West Bengal
Scroll to Top
Scroll to Bottom